Location: Oberkirch
(48.5323°N, 8.0787°E)
Time: 00:11:22
(UTC+00:00)

CUTE 1.7 + AOD 2 - Pass Details

Date: 15 March 2026
Orbit: 535 x 545 km, 97.8° (Epoch: 14 April)

Event Time Altitude Azimuth Distance (km) Brightness Sun altitude
Rises 04:12:08 0° 11° (N) 2,720 ? -15.5°
Reaches altitude 10° 04:14:16 10° 9° (N) 1,824 ? -15.1°
Maximum altitude 04:18:11 68° 287° (WNW) 591 ? -14.5°
Drops below altitude 10° 04:22:04 10° 204° (SSW) 1,812 ? -13.9°
Enters shadow 04:22:23 - 203° (SSW) 1,941 ? -13.8°
